Simultaneous Nadir Overpasses (SNOs) Predictions

Prediction of SNOs between METOP-B and TERRA Satellite Orbit:

Table of predicted SNOs for the next 14.0 days since TLE Epoch: 1/15/2022
Index Date (METOP-B) Time (METOP-B) Lat,Lon (METOP-B) SZA (METOP-B ) Date (TERRA) Time (TERRA) Lat,Lon (TERRA) SZA (TERRA ) Distance(km) Time Diff (sec)
1 01/16/2022 06:39:07 -81.25, -56.32 75.81 01/16/2022 06:40:08 -81.24, -56.47 75.81 2.66 61
2 01/16/2022 07:29:47 81.25, 111.36 104.22 01/16/2022 07:29:34 81.25, 111.25 104.20 2.01 13
3 01/19/2022 02:13:28 -81.24, 9.98 76.41 01/19/2022 02:14:20 -81.25, 10.05 76.38 1.25 52
4 01/19/2022 03:04:08 81.25, 177.61 103.62 01/19/2022 03:03:46 81.25, 177.75 103.63 2.32 22
5 01/21/2022 21:47:47 -81.25, 76.63 77.01 01/21/2022 21:48:31 -81.25, 76.52 77.01 1.97 44
6 01/21/2022 22:38:27 81.26,-115.78 103.01 01/21/2022 22:37:57 81.25,-115.81 102.99 0.82 30
7 01/24/2022 17:22:08 -81.24, 142.87 77.71 01/24/2022 17:22:43 -81.25, 142.93 77.69 0.92 35
8 01/24/2022 18:12:47 81.26, -49.20 102.35 01/24/2022 18:12:08 81.27, -49.06 102.36 2.65 39
9 01/27/2022 12:56:29 -81.24,-150.92 78.45 01/27/2022 12:56:55 -81.24,-150.72 78.42 3.31 26



Historial Predications of SNOs between METOP-B and TERRA
